Погода в Лепехинке

Россия / Саратовская область     50°38′40″N   46°55′04″E
темп.,
°C
ветер,
м/с
пор.,
м/с
влажн.,
%
обл.,
%
осадки,
мм/ч
давл.,
гПа
погр.,
м
23 июня, ср
ср2301:00+25в33450 0.0 101930
04:00+23в44483 0.0 102049
07:00+25в36545 0.0 1019160
10:00+31в46375 0.0 1019709
13:00+35в44273 0.0 10182276
16:00+35всв33231 0.0 10182955
19:00+33ссв343618 0.0 1017112
22:00+27св494944 0.0 1018144
24 июня, чт
чт2401:00+24всв4116180 0.0 1018208
04:00+22всв467041 0.0 1018104
07:00+25св45655 0.0 1019177
10:00+30св34466 0.0 1018600
13:00+33св43365 0.0 10181833
16:00+34ссв43331 0.0 10172719
19:00+32ссв45410 0.0 1016256
22:00+26св46525 0.0 101788
25 июня, пт
пт2501:00+24св35665 0.0 101666
04:00+22св34715 0.0 101759
07:00+24ссв34665 0.0 1017165
10:00+29св33500 0.0 1017792
13:00+33св44380 0.0 10161810
16:00+34св44340 0.0 10152113
19:00+32св46420 0.0 1014358
22:00+26всв47560 0.0 1014120
26 июня, сб
сб2601:00+24св45600 0.0 101467
04:00+23св35600 0.0 101467
07:00+25св35650 0.0 1014170
10:00+30всв23490 0.0 1014913
13:00+34св34350 0.0 10132170
16:00+35св34320 0.0 10122820
19:00+32св584248 0.0 1012495
22:00+26всв48600 0.0 1013132
27 июня, вс
вс2701:00+25всв35600 0.0 101362
04:00+23всв34680 0.0 101361
07:00+25всв34670 0.0 1014168
10:00+31всв34490 0.0 1013934
13:00+34всв33350 0.0 10131981
16:00+35св33300 0.0 10122607
19:00+33св35374 0.0 1012241
22:00+27всв410564 0.0 1012168